Millbury, OH

4:41 AM EST on December 11, 2016 (GMT -0500)
Metcalf

Weather History for KTDZ - October, 2012

Change the Weather History Date:

Sunday, October 21, 2012

  Actual Average (KTOL) Record (KTOL)
Temperature  
Mean Temperature 52 °F -  
Max Temperature 61 °F 60 °F 82 °F (1920)
Min Temperature 43 °F 39 °F 16 °F (1974)
Degree Days  
Heating Degree Days 13    
Growing Degree Days 2 (Base 50)    
Moisture  
Dew Point 41 °F    
Average Humidity 71    
Maximum Humidity 90    
Minimum Humidity 46    
Precipitation  
Precipitation 0.00 in - - ()
Sea Level Pressure  
Sea Level Pressure 30.08 in    
Wind  
Wind Speed 6 mph (SW)    
Max Wind Speed 12 mph    
Max Gust Speed 23 mph    
Visibility 10 miles    
Events      
Averages and records for this station are not official NWS values.
T = Trace of Precipitation, MM = Missing Value Source: NWS Daily Summary

Daily Weather History Graph

Daily Weather History Graph

Search for Another Location

Airport or City:

Trip Planner

Search our weather history database for the weather conditions in past years. The results will help you decide how hot, cold, wet, or windy it might be!

Date:

Astronomy

Oct. 21, 2012 Rise Set
Actual Time 7:53 AM EDT 6:42 PM EDT
Civil Twilight 7:25 AM EDT 7:11 PM EDT
Nautical Twilight 6:52 AM EDT 7:43 PM EDT
Astronomical Twilight 6:20 AM EDT 8:15 PM EDT
Moon 2:14 PM EDT (10/21) No Moon Set
Length of Visible Light 11h 46m
Length of Day
10h 49m
Waxing Crescent, 45% of the Moon is Illuminated
Oct 21
Waxing Crescent
Oct 21
First Quarter
Oct 29
Full
Nov 6
Last Quarter
Nov 13
New

Hourly Weather History & Observations

Time (EDT) Temp. Windchill Dew Point Humidity Pressure Visibility Wind Dir Wind Speed Gust Speed Precip Events Conditions
12:53 AM 46.0 °F 43.1 °F 41.0 °F 83% 29.96 in 10.0 mi SSW 5.8 mph - N/A   Overcast
1:53 AM 43.0 °F 39.5 °F 39.9 °F 89% 29.98 in 10.0 mi SW 5.8 mph - N/A   Partly Cloudy
2:53 AM 44.1 °F 41.5 °F 41.0 °F 89% 30.00 in 10.0 mi SW 4.6 mph - N/A   Overcast
3:53 AM 45.0 °F 43.5 °F 42.1 °F 90% 30.01 in 10.0 mi WSW 3.5 mph - N/A   Overcast
4:53 AM 46.9 °F - 43.0 °F 86% 30.04 in 10.0 mi WSW 4.6 mph - N/A   Overcast
5:53 AM 46.9 °F - 43.0 °F 86% 30.05 in 10.0 mi SW 8.1 mph - N/A   Overcast
6:53 AM 46.9 °F - 43.0 °F 86% 30.07 in 10.0 mi SW 8.1 mph - N/A   Overcast
7:53 AM 46.0 °F 42.5 °F 42.1 °F 86% 30.08 in 10.0 mi SW 6.9 mph - N/A   Overcast
8:53 AM 44.1 °F 40.1 °F 39.9 °F 85% 30.10 in 10.0 mi WSW 6.9 mph - N/A   Mostly Cloudy
9:53 AM 48.0 °F - 41.0 °F 77% 30.12 in 10.0 mi WSW 6.9 mph - N/A   Clear
10:53 AM 52.0 °F - 42.1 °F 69% 30.13 in 10.0 mi SW 5.8 mph - N/A   Clear
11:53 AM 57.0 °F - 43.0 °F 59% 30.13 in 10.0 mi SW 8.1 mph - N/A   Clear
12:53 PM 57.9 °F - 41.0 °F 53% 30.12 in 10.0 mi SW 11.5 mph 23.0 mph N/A   Partly Cloudy
1:53 PM 60.1 °F - 41.0 °F 49% 30.11 in 10.0 mi SW 9.2 mph - N/A   Partly Cloudy
2:53 PM 60.1 °F - 41.0 °F 49% 30.10 in 10.0 mi SW 9.2 mph - N/A   Clear
3:53 PM 61.0 °F - 41.0 °F 48% 30.09 in 10.0 mi SW 10.4 mph - N/A   Clear
4:53 PM 61.0 °F - 39.9 °F 46% 30.08 in 10.0 mi SSW 8.1 mph - N/A   Clear
5:53 PM 60.1 °F - 39.9 °F 47% 30.07 in 10.0 mi SSW 6.9 mph - N/A   Clear
6:53 PM 54.0 °F - 39.9 °F 59% 30.09 in 10.0 mi SSW 4.6 mph - N/A   Clear
7:53 PM 52.0 °F - 39.9 °F 63% 30.09 in 10.0 mi Calm Calm - N/A   Clear
8:53 PM 48.9 °F - 39.9 °F 71% 30.11 in 10.0 mi Calm Calm - N/A   Clear
9:53 PM 46.9 °F - 39.9 °F 77% 30.12 in 10.0 mi Calm Calm - N/A   Clear
10:53 PM 46.9 °F - 39.9 °F 77% 30.11 in 10.0 mi Calm Calm - N/A   Clear
11:53 PM 46.0 °F 43.9 °F 39.0 °F 76% 30.10 in 10.0 mi SSE 4.6 mph - N/A   Clear